Wind_Speed
45 42 40 47 52 51 45 43 43 42 42 40 38 36 34 34 35 39 37 33 32 29 28 29 26 24 26 29 33 37 42 44 45 46 46 48 52 54 54 50 46 44 44 46 45 42 41 41 41 40 41 41 42 43 44 44 45 46 47 46 47 47 48 49 49 50 50 51 52 53 52 51 51 51 51 51 51 52 53 54 55 57 59 60 62 63
47 42 42 51 54 50 48 47 45 42 42 42 41 39 37 38 39 40 40 37 35 33 29 30 27 24 26 28 31 35 38 41 43 46 47 47 49 54 55 51 47 45 45 46 44 42 42 42 41 40 41 40 41 42 43 44 45 46 47 47 48 48 49 50 52 52 52 52 53 53 52 51 51 51 52 52 53 54 55 56 58 60 61 63 64 66
46 42 45 53 54 52 51 50 47 44 43 42 42 41 39 42 42 40 42 40 37 36 32 30 29 26 27 30 30 32 36 39 42 45 47 45 47 53 54 50 47 45 45 45 43 41 42 41 40 40 40 40 41 42 43 44 45 46 47 48 49 50 51 52 54 54 54 54 54 53 51 51 51 52 53 54 55 56 58 59 61 62 63 64 66 67
46 43 48 54 56 56 54 52 49 49 48 44 44 42 39 44 45 40 42 41 38 38 35 32 30 26 28 32 33 33 34 38 41 43 44 44 47 51 52 50 46 43 43 44 42 40 41 42 42 41 41 40 41 41 42 44 45 46 48 48 49 51 52 54 56 57 57 57 55 53 52 52 53 53 54 55 57 59 60 62 63 64 66 67 68 69
48 47 50 53 57 59 56 53 51 52 52 48 46 44 42 44 45 42 42 40 37 37 37 34 30 27 30 33 33 34 35 36 38 38 39 43 49 52 51 50 45 40 40 42 41 41 42 44 44 43 42 41 42 43 44 45 46 48 48 50 51 53 55 57 58 59 58 57 55 54 53 53 54 55 56 58 59 60 61 63 64 65 67 69 70 72
48 48 51 53 56 58 57 54 54 57 55 50 48 47 47 48 47 45 43 41 36 35 36 35 30 27 32 34 32 34 36 36 37 36 38 41 46 52 52 48 45 41 41 43 44 44 45 46 47 46 45 45 46 47 47 48 49 50 51 52 54 55 57 59 59 59 58 56 55 54 54 56 57 58 59 60 60 62 63 65 66 68 70 71 72 73
47 50 52 55 56 57 57 54 57 63 58 51 50 52 52 52 51 48 45 42 37 35 35 35 33 29 29 33 35 36 36 35 35 37 39 40 43 50 52 49 47 46 45 46 48 50 50 49 50 50 50 49 50 51 51 52 52 53 53 54 55 56 58 59 59 59 59 57 56 56 57 59 61 61 61 62 63 65 66 68 69 71 72 72 73 74
50 52 52 56 58 58 57 56 59 66 62 53 52 55 56 55 54 51 49 44 39 37 34 35 41 37 27 29 34 36 35 34 35 37 40 42 44 49 52 51 51 52 50 50 52 53 54 54 54 55 54 53 53 53 53 53 54 54 53 54 54 56 57 58 59 60 61 59 58 58 60 61 62 63 64 65 66 67 69 70 71 71 72 72 73 74
54 54 53 56 58 58 58 58 61 65 64 57 55 57 58 58 56 54 52 47 43 39 33 38 50 45 28 28 34 32 32 34 35 38 41 43 45 47 49 50 51 52 52 53 55 56 57 58 58 58 57 56 56 55 54 54 54 54 53 54 55 56 57 58 59 61 62 60 59 60 60 62 63 64 65 66 66 67 68 70 70 72 72 73 75 76
57 56 57 57 58 59 60 61 62 64 64 62 60 60 60 59 58 57 53 50 47 40 35 42 54 50 33 29 35 32 33 36 36 40 44 45 48 49 49 49 51 53 54 57 58 59 60 61 61 61 60 59 58 57 57 56 55 55 55 55 56 57 58 59 61 63 64 63 62 62 63 64 65 66 66 67 67 68 69 71 72 73 74 76 77 79
61 59 58 59 61 62 61 62 64 65 65 64 63 62 61 60 58 57 53 52 49 40 37 46 55 53 36 29 35 37 38 41 40 43 46 46 50 54 53 52 54 55 57 60 62 62 63 63 64 64 63 62 61 60 60 59 58 58 58 58 59 60 60 61 63 66 67 67 67 67 67 67 68 69 70 70 71 72 73 74 75 77 78 79 81 83
64 61 60 62 64 64 64 64 64 64 65 65 64 63 62 61 60 59 56 55 51 41 41 49 54 52 40 35 41 42 44 47 45 46 47 45 50 55 54 53 54 54 55 59 61 63 64 65 67 67 66 66 64 63 63 63 62 61 61 61 62 63 63 65 67 69 70 70 72 73 72 72 72 73 73 74 75 76 77 78 79 80 82 83 85 87
68 65 65 66 65 65 67 66 65 66 67 67 66 66 67 65 64 63 60 57 52 44 46 52 53 49 42 40 45 45 47 51 51 51 51 48 51 56 55 54 56 56 56 58 61 64 66 68 69 69 69 69 67 67 66 66 66 65 64 65 65 66 67 68 70 72 73 73 75 77 78 78 77 77 77 78 78 79 81 82 83 84 85 86 87 88
72 70 70 71 69 69 69 68 68 68 68 67 67 70 71 68 68 68 65 62 57 51 50 52 52 48 42 43 46 45 46 49 50 53 55 53 54 58 58 58 60 60 61 63 64 67 70 72 72 72 72 72 71 71 71 70 69 68 68 69 69 70 71 72 74 75 76 76 77 79 81 82 82 82 81 82 83 84 85 85 86 87 87 88 89 89
76 73 72 75 75 72 71 71 72 72 69 66 67 72 70 68 72 73 69 64 61 58 54 53 53 47 43 44 46 45 44 45 48 51 53 52 53 58 60 62 64 64 65 67 67 69 71 73 74 74 75 76 75 75 75 75 75 73 73 73 74 74 75 76 78 78 79 79 80 81 83 84 85 84 84 85 86 86 86 87 87 87 88 89 89 90
82 77 72 77 80 76 74 75 76 76 72 67 69 71 69 70 76 79 74 67 68 68 56 51 54 50 47 49 49 51 51 50 53 54 53 52 53 59 63 64 67 69 71 71 71 72 73 73 74 75 77 78 77 77 78 79 79 78 78 77 77 77 77 79 80 80 81 81 82 83 84 86 86 86 86 85 86 86 86 87 87 87 88 88 89 90
91 85 75 75 78 77 78 78 79 80 77 73 73 72 72 77 81 82 80 74 76 76 60 51 56 53 51 52 50 53 55 55 58 57 55 56 58 64 67 67 69 71 74 74 74 75 75 75 76 77 78 78 78 80 80 81 81 80 80 79 79 79 79 81 81 82 82 82 83 83 85 86 87 87 87 87 87 87 87 88 88 88 88 89 89 90
97 94 83 77 76 77 79 81 81 81 82 82 80 78 80 84 85 85 86 83 82 83 71 60 60 55 51 49 49 55 57 57 59 59 58 58 60 66 71 71 72 73 75 76 76 76 76 77 78 78 79 79 80 82 83 82 82 81 82 82 82 83 83 84 84 84 85 86 86 86 86 88 89 90 90 90 90 90 90 89 88 88 88 89 90 90
95 96 88 79 76 76 78 81 80 80 85 88 86 86 87 87 88 89 93 91 89 90 82 71 66 59 49 45 50 59 62 63 66 65 64 61 61 69 75 75 75 75 77 79 79 79 78 77 77 79 80 82 83 84 83 83 83 84 85 86 87 88 87 87 87 88 90 90 90 89 89 90 91 92 92 92 93 93 92 91 90 90 90 90 92 92
95 98 94 84 81 82 80 77 78 82 87 90 89 89 88 88 90 93 96 96 93 93 90 83 78 64 52 54 60 64 69 72 75 74 72 71 70 75 79 78 78 79 80 81 81 81 80 78 79 82 85 86 86 85 84 84 86 86 87 89 91 92 91 91 92 93 94 94 93 92 92 92 93 94 95 94 95 95 95 94 93 92 92 93 94 95
98 101 101 95 92 91 84 78 80 83 87 90 91 91 90 90 93 96 98 96 94 96 95 94 88 64 53 64 68 67 73 78 81 81 79 80 81 81 81 81 82 83 83 83 83 83 83 82 84 87 89 90 89 88 88 89 90 90 90 91 93 94 94 95 96 96 96 95 94 93 94 94 95 96 96 96 96 96 97 97 96 96 96 96 97 98
102 104 106 106 102 97 92 89 88 86 86 88 90 90 89 91 94 97 99 96 96 101 101 103 97 68 53 67 71 69 75 79 84 86 83 84 86 85 86 86 86 87 87 85 85 86 87 87 88 90 92 93 93 92 92 93 94 94 93 93 92 92 93 94 96 96 95 94 93 93 93 94 96 97 97 97 97 98 99 99 100 100 100 99 100 101
107 109 112 113 109 104 101 100 97 93 93 93 94 93 91 94 97 99 102 100 100 105 105 106 103 76 59 70 77 76 80 82 86 89 87 87 88 90 92 93 92 92 91 89 89 90 91 90 90 91 93 94 94 94 95 95 97 98 96 94 91 89 90 91 93 94 94 94 94 93 94 95 96 98 98 98 99 99 100 101 102 102 101 101 101 102
112 114 116 117 116 113 110 106 103 101 103 104 104 102 99 101 103 105 108 107 107 111 110 111 109 91 75 79 83 82 85 87 89 91 91 89 90 93 96 97 96 94 92 92 93 92 92 93 93 93 94 95 95 95 96 97 99 100 98 95 92 90 90 90 92 93 94 95 95 95 95 96 98 99 100 100 100 100 101 102 103 103 103 102 103 103
117 117 119 121 121 121 118 112 108 106 108 111 111 108 107 107 110 112 113 114 115 117 115 114 114 105 93 91 93 92 92 93 93 95 95 93 93 98 100 100 99 95 93 94 95 95 95 97 97 96 96 97 97 98 98 99 100 99 97 96 93 92 92 92 93 94 95 96 96 97 98 99 100 100 101 102 102 102 102 103 104 104 104 104 104 105
122 123 125 126 127 128 124 118 113 112 114 116 114 112 112 113 116 118 118 121 123 122 120 121 121 117 109 105 103 100 98 97 98 99 99 98 99 102 104 104 102 99 97 98 99 99 99 100 99 97 97 98 99 100 100 100 100 98 97 96 95 95 95 95 96 96 97 99 100 101 102 101 101 101 102 102 103 103 103 104 104 105 105 105 106 106
127 129 130 131 131 131 129 124 120 118 120 122 120 118 119 119 120 122 124 127 128 126 126 128 129 128 124 117 110 105 102 103 104 104 104 104 105 107 107 107 105 102 101 102 103 103 103 102 100 99 99 99 100 100 100 100 100 99 98 98 98 98 98 98 99 100 101 102 103 104 104 103 102 102 102 103 103 104 104 105 105 105 105 106 106 107
131 132 132 132 132 131 131 130 128 128 128 129 128 127 126 126 126 127 130 131 130 131 133 135 134 134 131 124 117 113 111 111 112 112 112 110 109 109 108 108 107 105 106 108 108 107 106 106 105 103 102 102 102 102 101 100 100 100 101 100 100 99 98 99 101 103 103 103 103 104 103 103 103 103 103 103 103 104 105 106 106 106 107 107 108 109
133 134 134 135 136 136 137 136 136 136 135 135 134 133 133 133 134 135 135 133 132 134 137 137 136 135 132 127 124 120 118 117 117 117 115 112 109 108 108 110 110 110 113 115 114 112 110 110 109 108 106 106 106 104 102 101 101 103 104 102 100 97 97 101 104 104 104 103 103 103 103 103 103 103 104 104 104 105 106 106 107 107 108 109 109 110
138 139 139 140 141 142 142 140 139 139 139 139 139 139 140 141 141 140 137 133 132 133 135 135 135 135 133 129 125 123 123 123 122 119 116 112 111 109 110 112 113 115 118 119 119 117 115 112 112 112 111 110 108 106 104 103 104 107 107 104 101 99 100 105 107 105 104 103 103 103 103 103 104 104 104 105 105 106 106 107 108 108 109 109 110 110
139 139 141 143 144 145 143 141 140 140 140 141 141 141 142 142 142 140 138 136 135 135 135 135 136 136 133 128 126 127 128 126 124 121 117 113 112 113 113 114 117 119 120 122 123 121 117 115 114 114 113 111 110 109 106 105 107 109 108 106 105 104 106 109 108 106 106 105 105 105 104 104 104 104 104 105 106 106 107 108 109 109 109 109 109 109
138 138 139 141 145 146 144 141 140 140 140 141 141 139 135 135 137 138 137 138 140 139 138 138 138 136 131 129 129 129 126 123 121 119 115 113 114 116 117 119 121 122 123 124 124 122 120 119 118 116 114 112 111 109 108 108 110 109 108 108 108 108 110 111 110 109 109 108 108 107 107 106 106 105 105 105 106 107 108 109 110 110 110 109 107 106
138 137 137 138 141 143 143 141 141 141 143 143 141 136 131 131 134 135 134 134 134 135 139 142 139 133 130 130 129 125 121 118 116 114 113 115 117 120 121 122 124 124 124 124 123 121 121 122 121 119 116 114 113 112 111 112 112 110 110 111 111 111 113 114 114 114 112 111 110 110 109 108 108 107 107 107 108 109 110 111 112 111 110 107 105 104
138 137 137 138 139 139 139 138 138 143 147 146 139 131 126 127 130 132 133 131 128 126 130 135 135 131 128 128 127 124 119 115 112 112 114 116 119 121 122 122 123 124 124 123 122 122 122 122 122 121 118 117 116 116 116 115 114 113 114 114 113 114 116 117 117 116 115 113 113 112 111 111 110 109 109 109 110 111 112 113 112 110 107 104 102 102
137 137 138 138 139 139 138 138 140 145 147 143 135 129 125 124 126 130 132 131 126 123 122 124 128 128 127 126 126 123 119 115 112 112 114 116 118 120 120 120 121 122 122 123 123 123 123 122 121 120 119 118 118 119 119 118 116 115 115 115 115 116 118 119 120 119 118 117 116 115 115 114 113 113 113 113 113 114 113 111 109 106 103 102 102 101
135 137 138 139 141 141 141 143 145 146 145 141 138 134 129 126 126 129 132 131 128 125 123 123 124 124 124 123 122 121 120 118 116 115 115 116 117 117 117 117 119 120 121 122 124 124 124 123 121 120 119 119 120 121 122 122 120 119 119 118 118 119 120 121 122 122 122 121 120 119 118 118 117 117 117 117 117 115 113 110 107 105 103 103 103 102
130 133 136 139 140 141 142 145 146 146 145 142 138 134 128 125 124 127 130 130 127 126 125 125 123 121 119 118 119 121 124 125 123 120 118 116 116 115 114 114 117 120 121 123 124 125 125 124 122 121 120 121 122 123 124 125 124 122 122 121 120 121 122 124 125 125 125 124 122 121 120 119 119 119 119 118 116 113 110 107 105 103 102 102 102 102
126 129 132 136 138 138 140 141 143 144 142 137 133 128 124 122 121 122 127 129 126 124 124 123 123 121 118 118 120 124 128 130 128 123 116 113 113 114 113 114 116 119 121 123 124 125 126 126 125 125 124 124 125 125 127 127 126 125 124 123 122 123 125 127 129 130 128 126 124 122 120 119 118 118 116 114 111 108 106 104 103 101 101 101 101 100
123 125 128 131 133 133 134 136 138 139 136 131 125 121 120 119 118 121 127 126 121 119 120 120 121 122 122 124 126 127 130 131 129 123 117 114 116 117 117 117 117 119 122 124 126 128 129 130 130 129 127 127 127 128 129 129 129 128 127 126 126 126 128 132 134 133 131 128 125 122 118 116 115 113 111 108 106 105 104 102 101 100 99 99 99 99
120 122 125 128 129 129 130 132 133 133 130 125 120 118 118 119 120 124 124 118 114 116 117 117 119 122 124 126 126 127 129 130 129 125 122 121 122 122 122 121 121 122 124 126 127 129 130 131 132 131 130 129 129 131 132 132 132 131 130 130 130 131 133 135 136 133 131 128 124 120 116 112 110 107 105 104 103 103 102 101 100 99 98 98 98 97
117 119 122 124 125 125 126 128 129 128 124 121 119 118 117 119 122 124 119 113 113 115 114 113 115 118 120 121 122 123 124 125 126 126 125 125 125 125 124 124 124 124 125 125 126 128 129 132 134 134 134 133 133 134 135 134 134 134 134 134 135 135 136 136 134 131 129 126 122 118 114 111 108 106 104 103 103 102 102 101 100 99 99 98 97 96
115 118 120 122 121 121 123 125 127 125 121 119 119 118 118 120 123 121 116 112 111 112 112 112 113 114 115 117 119 120 120 120 122 124 124 125 126 125 125 124 124 125 126 127 129 130 132 135 137 138 138 137 137 137 137 136 136 136 136 137 137 137 136 133 130 127 125 122 119 116 113 111 109 108 106 104 103 103 102 101 100 100 100 99 98 97
117 118 120 121 122 122 122 124 124 123 120 119 118 117 118 121 122 120 118 115 113 112 113 114 113 113 113 113 114 116 117 117 119 121 122 124 124 124 124 123 124 125 127 128 130 132 134 137 139 140 139 139 138 139 139 138 137 136 136 137 137 136 133 130 126 122 119 117 115 113 111 111 110 109 108 106 105 104 103 102 101 102 101 100 99 98
119 120 120 121 123 125 124 123 122 121 120 121 121 119 118 119 120 120 120 118 116 116 116 114 114 113 112 111 111 113 114 115 116 116 117 118 119 120 121 121 121 122 124 126 129 132 134 137 139 139 138 138 138 138 138 137 136 134 133 133 132 131 128 125 121 117 115 113 111 111 111 111 112 111 110 109 108 107 105 103 103 103 102 101 100 99
120 121 122 123 123 126 125 123 121 121 122 123 123 121 119 120 120 120 120 119 118 118 117 116 115 114 113 112 112 112 113 114 114 114 114 114 114 115 117 118 118 119 121 123 126 129 132 134 136 136 135 134 133 132 131 130 129 127 125 124 123 123 122 120 118 116 114 112 111 111 112 112 113 112 111 111 110 109 107 104 103 103 103 102 101 99
122 121 123 124 125 126 125 123 122 123 123 123 123 122 122 123 123 121 120 119 118 118 118 117 116 115 114 113 112 112 113 113 112 112 112 112 111 111 113 114 115 117 118 119 120 122 124 126 127 128 127 125 124 123 123 122 121 120 118 117 117 117 117 118 118 117 115 114 113 113 113 113 112 111 111 110 110 108 107 105 104 104 103 102 101 100
122 122 123 125 126 125 123 120 121 124 125 123 121 121 122 124 124 123 121 119 118 118 118 118 117 116 115 114 113 113 113 112 111 110 110 109 108 107 108 109 110 111 112 112 113 114 115 116 117 118 118 118 118 118 118 118 118 117 115 114 115 116 117 118 119 119 118 116 115 115 114 112 111 110 109 109 108 107 105 104 104 103 103 102 101 100
118 120 123 125 125 124 120 118 120 124 124 121 119 120 123 125 124 123 122 121 119 118 117 117 118 117 117 115 113 113 113 113 112 110 108 107 106 106 106 107 107 107 108 109 110 110 111 111 112 113 114 115 115 117 118 118 118 117 115 115 115 116 117 118 119 120 118 116 115 115 114 111 109 108 107 106 105 104 104 103 102 101 101 100 99 98
115 116 119 123 124 121 118 117 119 122 120 117 117 121 124 124 122 121 121 121 120 119 117 116 117 117 117 116 114 113 112 112 112 111 109 107 106 106 106 106 106 107 108 110 111 111 110 110 110 110 111 112 113 115 117 117 116 115 114 114 115 116 117 117 118 118 116 114 113 112 112 110 107 106 105 104 103 102 101 100 100 99 98 98 97 97
115 114 114 119 122 118 115 117 120 120 116 113 115 120 124 123 121 120 119 120 120 120 118 116 115 115 115 115 114 112 110 109 109 109 108 107 105 106 106 105 105 106 108 110 111 111 110 110 109 108 108 108 110 113 113 113 113 112 111 112 113 114 114 115 115 114 113 111 110 109 109 107 105 103 102 101 100 99 98 97 97 96 96 95 95 95
113 112 112 115 117 115 113 116 121 121 117 112 112 117 121 121 120 119 119 120 120 120 118 116 114 112 112 114 114 112 109 106 105 104 104 104 104 105 105 104 103 104 105 107 108 108 108 108 108 107 106 105 107 109 109 108 107 106 106 107 108 109 110 111 111 110 109 108 106 105 104 103 101 100 99 99 98 97 95 94 93 93 92 92 93 94
Wind_Direction
287 288 292 288 284 285 289 289 287 288 290 288 285 285 285 285 286 288 292 295 296 297 298 295 295 298 292 284 282 280 281 281 276 271 268 269 272 275 276 277 279 279 278 279 280 279 276 273 270 267 267 267 266 267 269 269 270 272 274 274 274 275 276 277 280 283 283 285 287 287 287 287 285 284 283 284 284 283 283 284 284 285 286 288 288 289
286 290 291 286 285 288 290 288 286 286 287 287 286 284 284 285 283 287 290 290 293 295 295 295 297 299 291 283 279 277 278 279 278 276 273 272 275 275 275 278 280 280 280 279 279 279 275 273 271 268 268 269 269 270 270 270 270 272 274 274 273 275 276 277 280 282 283 286 287 287 287 286 284 283 283 283 283 282 282 283 283 284 285 286 287 287
283 289 289 286 287 289 289 288 286 286 285 284 284 282 283 285 284 287 288 287 291 292 292 292 296 298 290 282 278 275 279 280 279 280 280 279 277 275 276 278 279 280 281 280 280 279 276 273 271 269 269 270 271 272 271 271 272 274 275 275 274 275 276 278 280 282 283 285 287 287 286 284 283 282 282 282 282 281 282 282 283 283 284 284 284 285
282 284 284 286 288 288 288 288 287 287 286 283 282 281 281 284 285 287 287 287 290 292 289 288 293 296 286 282 281 278 282 283 282 285 286 283 279 276 278 279 279 281 282 282 282 279 276 274 272 272 272 272 273 273 272 273 274 275 275 275 276 276 277 279 281 282 283 285 286 286 283 282 281 281 281 281 281 282 283 283 283 283 283 283 283 284
283 280 280 282 285 286 287 288 286 286 285 284 283 282 281 282 284 286 286 286 289 292 289 286 289 290 283 284 284 283 286 286 285 285 282 279 280 279 279 281 283 284 283 283 283 280 276 275 274 274 275 275 276 276 276 277 278 278 278 278 278 278 279 281 282 283 284 285 285 284 282 281 280 281 282 282 283 283 284 285 285 284 284 283 283 283
285 282 279 278 280 283 285 286 286 283 283 284 284 283 282 282 283 284 284 283 286 289 289 287 286 282 283 286 284 284 289 288 284 280 275 275 279 280 280 283 285 284 284 285 284 280 277 277 277 278 278 278 279 279 279 280 280 280 280 280 280 281 282 283 284 284 284 285 284 283 282 281 282 283 283 284 284 285 286 286 286 285 285 285 285 285
285 281 279 279 279 281 283 284 284 282 282 284 285 283 282 283 283 283 282 280 282 283 283 287 284 276 279 283 282 286 289 286 281 277 274 274 276 278 281 284 285 284 285 284 282 281 280 280 281 281 281 281 280 280 280 280 281 281 281 282 282 282 282 283 284 284 284 284 284 283 282 282 284 284 285 285 285 286 287 287 286 286 286 286 286 286
283 279 279 279 279 281 282 282 281 281 282 284 283 283 282 282 282 282 281 280 280 279 279 286 283 275 273 276 278 286 288 282 279 280 279 275 272 275 279 282 284 285 285 283 281 281 282 283 283 283 282 281 280 280 280 280 280 281 282 282 282 282 282 283 284 284 283 283 284 283 283 283 284 285 285 285 286 287 287 287 288 288 288 288 288 287
283 281 280 278 280 281 281 280 280 281 283 284 282 281 281 281 281 281 281 280 279 277 280 285 282 276 274 274 276 280 280 275 276 279 278 276 275 273 274 278 280 281 281 280 280 281 282 282 283 282 282 281 280 280 280 280 280 280 281 281 281 281 282 283 283 282 282 282 282 282 282 282 283 284 285 286 287 287 288 288 289 289 290 290 289 288
284 282 280 280 281 281 280 279 280 281 283 283 282 280 280 280 280 280 280 280 278 278 281 282 278 276 275 277 281 278 272 271 271 271 272 275 276 272 270 273 275 276 277 278 279 280 281 281 281 280 280 279 279 279 279 280 279 280 280 279 279 280 281 281 280 280 281 281 280 280 280 281 282 283 284 285 286 287 288 289 289 289 289 289 289 288
284 282 282 281 280 280 280 279 279 280 281 281 281 280 280 280 279 279 280 280 279 279 280 277 276 277 274 275 280 277 274 273 271 270 272 275 274 272 272 273 272 273 275 277 278 279 279 279 279 278 278 279 279 279 280 279 279 279 279 279 279 280 280 280 280 281 281 282 281 281 281 281 282 283 284 285 285 286 287 288 289 289 290 290 290 289
282 283 283 280 278 279 279 277 277 278 279 280 280 280 280 279 278 278 279 280 280 278 275 273 275 278 279 278 278 277 275 273 272 273 275 275 272 271 275 275 274 273 272 274 275 276 276 277 277 278 278 278 279 279 279 279 279 279 279 279 280 281 281 281 281 282 283 284 284 284 284 284 284 284 285 285 286 286 287 288 290 290 291 291 292 292
282 283 282 279 279 279 278 277 277 277 278 279 280 280 279 278 278 278 278 278 277 275 273 273 275 277 280 281 280 280 278 276 275 274 274 273 270 270 274 275 274 274 272 271 271 272 273 274 275 277 278 279 279 279 279 279 279 279 280 280 281 282 282 282 282 283 284 286 287 287 288 288 287 287 287 287 287 288 289 290 291 291 292 292 292 293
280 280 280 281 280 279 279 279 277 276 276 278 280 279 278 279 280 279 277 275 274 272 272 273 276 277 278 279 279 281 283 283 282 278 275 273 273 275 277 276 275 275 274 272 270 271 272 273 275 277 278 279 280 280 279 279 279 279 279 280 281 282 282 283 283 283 284 286 287 288 289 289 289 289 289 288 289 289 289 290 291 292 292 292 292 292
278 276 278 279 279 279 280 280 278 276 276 277 279 278 279 282 281 278 275 275 275 272 271 276 277 276 275 274 276 279 281 283 284 282 280 279 280 282 282 280 279 278 276 275 274 274 275 276 278 279 280 281 282 281 281 280 279 279 279 280 281 282 282 282 282 283 284 285 287 288 288 288 288 288 288 288 288 289 290 290 291 292 292 292 292 293
277 277 277 276 276 279 280 280 279 278 278 278 278 279 282 282 280 278 277 278 277 273 273 277 276 274 274 274 278 281 282 280 279 279 281 282 284 284 283 282 281 278 277 277 277 278 280 280 281 281 281 282 282 283 283 282 281 280 279 279 280 281 282 283 283 284 285 286 287 287 287 287 287 287 288 288 288 288 289 289 290 291 292 293 293 293
276 278 277 275 275 275 276 277 278 279 280 279 278 279 281 280 280 281 282 281 279 276 275 275 273 273 274 275 279 283 284 281 278 279 282 283 284 284 283 281 280 279 279 279 280 281 283 283 283 283 283 283 283 284 284 284 283 282 281 281 280 281 281 282 283 285 286 286 286 287 287 287 288 288 288 288 288 288 288 289 290 291 292 293 293 293
276 277 276 276 276 274 273 274 275 278 280 279 278 278 278 278 280 282 282 281 280 279 277 274 272 272 274 278 280 279 279 278 278 281 283 283 283 281 279 278 279 280 281 282 282 283 283 284 284 284 285 285 285 285 285 285 285 284 284 283 282 282 282 282 282 283 284 285 285 286 287 288 288 288 288 288 288 288 289 289 290 291 292 293 293 293
277 276 275 275 275 276 274 273 273 275 277 277 277 277 277 278 280 280 280 280 280 280 279 276 272 271 276 282 280 277 277 277 277 278 279 280 281 279 278 278 279 280 282 283 283 284 283 284 285 285 285 285 286 286 286 286 285 285 284 284 283 283 282 282 282 283 283 284 285 286 287 288 289 289 289 289 289 289 289 289 290 291 293 293 294 293
279 278 277 275 274 274 275 275 274 273 272 273 274 276 277 279 280 280 280 280 282 282 282 281 275 273 277 280 278 279 280 279 278 277 277 277 277 277 279 280 281 281 281 282 283 284 284 285 286 287 287 287 287 287 287 287 287 286 286 285 284 283 282 282 282 283 283 284 284 285 285 287 288 289 289 289 289 289 290 290 290 291 292 294 294 294
279 279 279 278 276 276 278 279 276 273 272 273 274 276 277 278 280 280 280 282 283 283 283 282 279 279 281 280 279 280 280 280 280 280 279 279 277 276 277 278 279 280 280 281 283 284 285 286 287 287 287 287 287 287 288 288 288 288 287 286 284 283 282 281 281 282 283 284 284 284 285 285 287 288 289 289 290 290 290 290 291 291 292 293 294 295
280 278 278 279 279 281 282 281 278 276 275 275 275 276 277 278 278 279 281 282 283 282 281 281 281 284 285 282 280 280 279 280 282 282 281 281 280 279 279 278 277 277 279 281 282 282 283 284 285 285 286 286 287 287 288 288 288 287 287 287 285 284 283 282 281 282 282 283 284 285 285 286 287 288 289 289 289 290 290 291 291 292 292 293 294 295
280 279 279 282 284 284 283 283 282 283 283 282 280 279 278 278 277 279 281 282 282 282 282 284 285 286 288 284 280 279 279 280 280 281 281 281 281 280 279 278 278 278 279 280 280 279 280 281 281 282 283 284 285 286 285 285 286 286 287 287 286 285 284 282 281 281 282 282 283 284 285 286 287 288 288 289 289 290 291 291 292 292 293 294 295 296
280 280 281 283 285 284 283 284 285 286 286 285 283 282 281 281 282 282 283 283 284 284 286 289 289 290 293 288 281 280 283 282 281 280 281 280 279 278 278 278 279 281 282 282 281 280 279 279 280 280 281 282 282 283 282 282 283 285 286 287 286 285 285 284 283 282 283 283 284 285 286 287 287 287 288 288 289 290 291 292 292 293 294 295 296 296
280 280 281 281 282 282 283 284 284 284 283 282 281 282 282 283 283 283 284 285 285 285 288 290 290 292 293 289 285 285 286 285 283 282 281 281 280 278 277 278 280 283 283 281 280 280 278 279 280 280 280 280 280 280 280 280 281 283 285 286 287 287 288 287 286 286 286 287 287 288 288 288 288 288 288 288 289 290 291 292 293 294 295 296 297 297
279 278 279 279 280 281 282 282 282 282 281 281 282 283 284 284 284 284 285 286 286 287 289 290 290 291 291 289 287 286 285 283 282 281 282 283 281 278 278 280 282 283 283 282 280 279 279 279 280 281 280 279 280 279 278 279 280 282 284 286 288 289 290 290 289 289 289 290 291 291 291 291 290 290 290 290 290 291 292 293 294 295 296 296 297 297
276 277 278 279 280 281 282 282 281 281 280 281 282 283 283 283 283 284 284 285 287 288 288 289 289 290 289 288 285 283 281 280 281 282 282 280 278 278 279 281 281 281 281 282 281 280 281 281 281 281 280 280 281 281 280 280 281 283 286 287 288 290 291 291 291 290 291 291 292 292 292 292 292 292 292 292 292 292 293 294 295 295 296 296 296 296
274 275 276 277 278 279 280 281 281 281 281 282 282 282 282 282 282 282 283 284 286 287 287 288 288 287 286 285 283 282 282 281 282 283 283 281 279 280 280 279 278 280 282 283 283 283 283 282 282 283 283 283 284 284 283 283 282 284 287 288 289 290 289 289 290 290 290 291 292 292 292 293 293 293 292 292 293 294 294 295 295 295 295 296 296 296
272 272 274 275 277 278 278 279 280 280 281 281 282 281 282 282 281 281 282 283 285 285 285 285 284 283 284 284 284 284 283 282 282 282 281 281 281 279 278 277 278 282 285 286 286 286 284 283 284 285 286 285 285 286 285 284 283 285 287 289 290 289 287 288 290 290 291 291 292 292 293 293 293 292 292 293 293 294 294 294 294 294 294 295 295 295
272 272 274 274 275 276 277 277 279 280 280 281 281 281 281 281 281 282 283 284 283 281 280 280 280 281 282 283 283 283 282 281 281 281 281 281 280 277 277 278 281 285 286 286 287 287 285 284 285 286 286 286 286 287 286 284 284 286 288 289 291 289 288 290 291 291 291 292 292 293 293 293 293 292 293 293 293 293 293 293 293 293 293 293 293 293
273 273 274 275 275 275 276 277 278 278 278 278 278 278 279 280 281 283 284 282 280 278 278 279 279 280 281 281 281 281 281 281 281 281 281 280 279 277 278 281 284 285 284 285 286 286 285 285 285 285 285 285 286 286 285 284 285 287 288 289 291 291 290 291 292 292 292 293 293 293 292 292 292 292 293 293 293 293 293 293 292 292 292 292 292 292
271 272 273 274 275 276 277 277 277 276 276 275 275 275 276 279 281 282 281 281 281 281 281 280 279 279 280 279 278 279 280 280 280 281 281 280 279 279 281 283 284 283 283 284 285 286 285 285 285 285 285 285 285 285 284 285 288 288 288 290 292 292 292 292 293 294 294 294 293 293 293 292 292 292 292 293 293 293 292 292 292 292 292 292 292 291
269 270 270 271 272 274 275 275 276 275 273 272 273 274 276 277 278 278 278 279 280 282 282 282 282 282 282 280 279 279 279 279 280 281 281 280 279 280 283 284 283 283 283 284 285 285 285 286 287 286 286 286 286 286 287 289 290 290 290 291 292 292 292 293 293 294 294 293 293 293 293 293 293 292 292 292 292 293 293 293 292 292 292 291 291 290
268 269 269 269 269 270 271 272 272 271 272 273 274 275 275 275 275 276 277 278 278 278 280 281 283 283 282 281 281 281 282 283 284 283 281 280 281 282 283 283 283 283 283 283 284 285 286 287 287 287 287 287 287 287 289 290 290 289 290 291 292 292 292 292 293 293 293 293 293 293 293 293 293 292 292 292 293 293 293 293 292 292 291 291 290 290
267 267 267 268 268 268 268 268 267 268 270 273 273 272 270 271 273 276 277 278 277 276 275 277 278 279 279 280 281 282 284 284 283 281 280 280 281 282 282 283 283 283 283 284 285 285 286 287 287 287 287 287 287 287 289 290 290 290 291 292 292 292 292 292 292 292 293 293 293 293 294 293 293 293 293 293 294 294 294 293 293 292 292 291 291 291
265 266 266 266 266 267 267 266 266 268 269 270 269 269 269 270 271 272 273 274 273 272 272 272 273 274 276 278 280 281 282 281 279 277 276 277 278 279 280 281 281 281 282 283 284 285 286 286 286 286 286 286 286 287 288 290 290 290 291 292 292 292 291 291 291 292 292 293 293 294 294 294 294 294 294 294 294 294 294 294 294 293 293 292 292 292
265 265 265 266 266 266 266 266 267 268 268 269 269 270 270 269 269 269 269 271 270 269 268 268 269 270 273 275 277 278 278 276 275 274 274 275 276 276 277 277 278 279 280 282 283 284 285 285 285 285 284 285 285 287 288 289 289 290 290 291 290 290 290 290 291 291 292 292 293 293 293 293 293 294 294 293 293 293 293 293 293 293 292 292 292 292
264 265 265 265 266 266 266 267 267 268 269 270 270 271 271 269 268 267 268 269 269 267 266 266 267 268 269 270 270 271 272 272 273 274 275 275 275 274 274 274 275 276 277 279 280 281 282 282 282 283 283 283 284 285 286 287 287 287 288 288 287 287 288 289 289 290 291 292 292 292 292 292 293 292 292 292 291 291 292 292 292 292 291 291 291 291
263 264 265 265 265 266 266 267 267 268 269 271 271 272 272 270 269 267 267 269 270 268 266 265 265 266 265 265 264 265 266 268 270 272 273 272 272 272 272 272 273 274 275 276 277 279 279 280 281 281 281 281 281 282 283 284 284 284 285 285 286 286 286 287 288 289 290 291 291 291 292 292 291 291 291 290 290 290 291 291 291 291 291 290 290 290
262 263 263 264 265 266 266 266 267 269 271 272 273 273 272 271 270 269 270 272 272 268 265 265 264 264 264 263 263 264 264 265 267 268 269 269 269 270 271 272 272 272 273 275 276 278 279 280 280 280 281 280 280 281 282 282 282 283 284 285 285 285 286 286 287 288 289 290 291 291 291 291 290 290 290 290 290 290 290 290 290 290 290 290 289 289
264 264 264 264 265 266 267 267 268 269 271 272 272 272 272 271 270 270 272 274 273 270 268 267 265 265 264 265 265 265 265 265 266 267 267 266 267 268 269 270 270 271 272 274 275 276 278 278 279 279 280 280 280 280 281 282 282 283 284 284 285 285 285 286 287 288 289 290 291 291 291 291 291 290 290 290 290 290 290 290 291 291 290 290 290 290
265 265 265 266 266 266 266 267 268 269 270 270 270 271 272 271 271 273 274 274 273 272 272 270 269 267 267 266 266 266 266 266 266 266 266 266 266 266 267 268 269 269 271 272 273 274 275 276 276 277 278 278 279 280 281 282 282 283 284 284 284 285 285 286 287 288 288 289 290 290 290 291 291 290 290 290 290 290 290 291 291 291 291 290 290 290
266 266 266 267 267 266 266 266 268 269 270 271 270 270 270 271 272 274 274 274 274 273 272 271 270 269 268 267 266 266 266 265 265 265 266 266 267 268 268 269 269 269 269 270 271 272 273 273 274 275 276 277 278 279 280 281 282 283 283 283 284 284 285 285 286 287 287 287 288 289 290 290 290 290 290 290 290 290 290 291 291 291 290 290 290 290
267 267 267 267 268 267 267 268 269 270 271 271 271 270 270 270 271 271 272 272 272 272 271 271 270 270 269 268 268 267 267 266 266 266 266 267 268 269 269 270 270 270 270 270 270 271 271 272 273 274 275 277 278 279 280 281 281 282 282 282 283 283 284 285 285 285 286 286 287 288 289 289 289 289 290 290 290 290 290 290 290 290 290 290 290 290
268 268 268 268 269 269 269 270 270 270 270 270 271 271 271 271 270 270 270 270 270 270 270 270 270 269 269 269 268 268 267 267 267 267 267 267 267 268 269 269 270 270 270 270 270 271 271 272 273 274 275 277 278 278 279 280 281 281 281 282 282 283 283 283 284 284 285 286 286 287 287 288 288 288 288 288 289 289 289 289 289 289 290 290 290 290
269 268 268 269 269 269 269 270 271 270 270 270 270 271 272 271 271 270 270 270 270 269 269 269 269 269 268 268 268 268 267 267 267 267 267 267 266 267 267 267 268 269 269 269 269 270 270 271 273 274 275 277 278 278 279 279 280 280 281 281 282 282 282 282 283 283 284 285 286 286 286 286 286 286 286 287 287 287 288 288 289 289 289 290 290 290
268 269 268 268 268 269 269 270 271 270 270 270 270 271 271 271 271 271 270 270 270 269 269 269 269 269 269 268 268 268 268 268 267 267 267 267 267 267 267 267 267 267 268 268 268 269 270 271 272 274 275 276 277 277 278 278 279 279 280 280 280 281 281 281 282 282 283 284 284 284 284 284 285 285 285 285 286 286 287 287 288 288 288 289 289 289
267 267 268 268 268 269 269 270 270 269 270 271 271 271 271 270 271 271 272 272 271 271 270 270 270 270 270 269 269 268 268 269 269 269 268 268 269 269 269 269 268 268 268 268 269 269 270 271 272 273 274 275 276 276 276 276 277 277 278 279 279 279 279 279 280 280 281 282 283 283 283 283 283 283 284 284 285 285 286 286 286 287 287 287 288 288
266 266 267 268 268 269 269 270 269 268 269 270 271 271 271 271 271 271 272 273 273 272 271 271 270 270 270 270 270 269 269 269 270 270 270 270 270 270 270 270 270 270 270 270 270 271 271 271 272 272 273 273 274 274 274 274 275 276 276 276 277 277 277 277 278 278 279 280 280 281 281 281 282 282 283 283 284 284 284 285 285 285 285 286 286 286
266 266 266 266 267 268 269 269 269 269 269 269 269 269 270 271 272 272 272 272 272 272 271 271 271 271 271 271 271 270 269 269 270 270 271 271 271 271 271 271 270 270 271 271 272 273 273 273 273 273 272 272 272 272 273 273 274 275 275 275 275 275 275 276 276 277 277 278 278 279 279 280 281 281 282 282 283 283 283 283 284 284 284 284 285 285
266 266 266 265 266 267 267 267 268 268 269 268 268 268 269 270 270 271 271 271 271 271 271 271 271 271 272 272 272 272 272 271 270 270 270 271 272 272 272 271 271 270 271 271 272 273 273 274 274 273 272 272 272 272 273 273 274 274 274 274 274 274 274 274 275 275 276 277 277 278 279 279 280 281 281 282 282 281 281 282 282 283 283 283 284 284
Height
10747 10750 10752 10743 10735 10736 10741 10743 10742 10742 10741 10740 10741 10741 10742 10742 10740 10737 10737 10740 10739 10740 10739 10735 10736 10735 10730 10728 10724 10720 10717 10715 10717 10720 10720 10719 10716 10714 10714 10719 10723 10725 10724 10721 10721 10722 10722 10722 10722 10722 10721 10721 10721 10721 10721 10720 10719 10719 10717 10717 10717 10715 10714 10713 10712 10711 10710 10708 10706 10704 10703 10702 10700 10698 10697 10696 10694 10692 10690 10688 10687 10685 10683 10682 10680 10678
10741 10747 10747 10734 10730 10734 10735 10736 10736 10738 10737 10735 10735 10736 10737 10735 10735 10734 10734 10735 10736 10736 10736 10733 10733 10731 10726 10723 10720 10717 10716 10712 10710 10710 10712 10714 10713 10707 10706 10712 10717 10717 10717 10716 10716 10716 10715 10715 10715 10715 10715 10715 10715 10715 10714 10714 10714 10713 10712 10711 10710 10709 10708 10706 10705 10704 10703 10702 10700 10699 10698 10696 10694 10692 10691 10690 10688 10685 10684 10682 10680 10678 10676 10675 10672 10670
10739 10745 10740 10728 10726 10729 10730 10729 10730 10731 10731 10731 10730 10731 10733 10729 10729 10732 10730 10730 10732 10731 10733 10731 10730 10728 10721 10718 10716 10713 10713 10710 10706 10704 10704 10707 10706 10699 10699 10705 10710 10710 10709 10709 10709 10710 10708 10708 10709 10709 10709 10709 10708 10709 10708 10708 10707 10707 10706 10705 10704 10703 10701 10700 10698 10697 10697 10696 10695 10694 10692 10690 10688 10686 10685 10683 10681 10678 10677 10675 10673 10671 10670 10667 10665 10663
10738 10741 10733 10725 10721 10722 10724 10724 10724 10723 10723 10726 10725 10726 10729 10724 10723 10727 10726 10726 10727 10727 10728 10727 10728 10725 10716 10714 10712 10709 10710 10708 10703 10702 10700 10699 10696 10693 10694 10697 10702 10704 10702 10701 10702 10702 10701 10701 10702 10702 10702 10702 10702 10702 10702 10701 10701 10700 10699 10699 10698 10696 10695 10693 10691 10690 10689 10689 10688 10687 10686 10683 10681 10679 10678 10676 10674 10672 10670 10668 10666 10664 10662 10660 10658 10655
10733 10734 10728 10724 10717 10715 10717 10719 10719 10715 10715 10719 10720 10721 10721 10718 10718 10721 10720 10721 10723 10723 10722 10723 10726 10721 10712 10711 10710 10705 10706 10705 10702 10701 10698 10694 10689 10686 10688 10690 10695 10698 10696 10695 10695 10695 10694 10693 10694 10695 10695 10696 10695 10695 10695 10695 10694 10694 10693 10692 10691 10689 10687 10685 10683 10682 10681 10681 10680 10679 10678 10675 10673 10672 10670 10668 10666 10664 10663 10661 10659 10657 10654 10652 10650 10647
10728 10725 10721 10718 10714 10711 10711 10714 10712 10706 10708 10714 10715 10714 10713 10712 10713 10714 10715 10716 10719 10719 10717 10717 10721 10718 10709 10707 10706 10703 10702 10701 10698 10697 10695 10693 10688 10682 10682 10685 10688 10691 10691 10689 10688 10687 10687 10686 10686 10687 10688 10688 10688 10687 10688 10688 10687 10686 10686 10684 10683 10681 10679 10676 10674 10672 10672 10672 10671 10670 10669 10667 10665 10663 10662 10660 10658 10656 10654 10653 10650 10648 10646 10644 10641 10639
10722 10717 10713 10710 10708 10707 10707 10710 10705 10695 10700 10711 10710 10706 10705 10704 10706 10708 10709 10711 10714 10715 10713 10712 10713 10714 10710 10704 10701 10701 10700 10697 10693 10691 10691 10691 10688 10680 10678 10681 10681 10683 10684 10683 10681 10679 10679 10680 10679 10679 10680 10680 10680 10680 10680 10680 10679 10678 10677 10676 10674 10672 10670 10667 10665 10664 10662 10663 10663 10661 10660 10658 10656 10654 10653 10651 10649 10647 10645 10643 10641 10639 10637 10635 10632 10630
10712 10710 10709 10704 10701 10703 10703 10705 10699 10687 10691 10705 10705 10699 10697 10697 10699 10701 10703 10705 10708 10709 10711 10709 10703 10706 10712 10705 10698 10700 10698 10693 10689 10687 10687 10686 10685 10680 10677 10677 10676 10675 10676 10676 10674 10672 10671 10672 10672 10671 10671 10671 10671 10671 10672 10671 10671 10670 10669 10668 10666 10663 10661 10659 10657 10655 10654 10654 10653 10652 10650 10648 10647 10645 10643 10641 10640 10638 10635 10633 10631 10629 10627 10625 10623 10620
10703 10704 10703 10699 10697 10698 10697 10696 10692 10684 10685 10694 10697 10693 10691 10690 10692 10694 10696 10699 10701 10703 10708 10704 10691 10695 10710 10706 10697 10699 10695 10689 10687 10684 10681 10680 10680 10678 10676 10675 10672 10670 10669 10669 10668 10667 10666 10666 10666 10664 10663 10663 10663 10663 10663 10663 10663 10662 10661 10660 10658 10655 10653 10651 10649 10646 10644 10644 10644 10642 10640 10639 10637 10636 10633 10631 10629 10628 10625 10623 10622 10619 10617 10615 10613 10610
10694 10696 10695 10694 10692 10690 10689 10688 10685 10681 10680 10684 10686 10685 10684 10684 10685 10686 10689 10691 10693 10699 10704 10696 10682 10686 10703 10705 10696 10696 10692 10686 10685 10681 10677 10677 10674 10671 10673 10673 10670 10667 10665 10663 10662 10662 10661 10660 10659 10657 10656 10655 10656 10656 10656 10656 10655 10655 10654 10652 10650 10648 10646 10643 10640 10637 10635 10635 10634 10632 10631 10629 10627 10626 10624 10621 10619 10617 10615 10613 10611 10609 10607 10605 10602 10599
10682 10686 10689 10688 10684 10682 10682 10680 10678 10676 10674 10675 10676 10677 10677 10678 10677 10678 10682 10682 10685 10695 10697 10685 10676 10679 10695 10702 10693 10690 10688 10683 10681 10677 10675 10675 10667 10662 10666 10667 10666 10664 10661 10658 10657 10656 10654 10652 10650 10649 10649 10648 10649 10649 10649 10648 10648 10647 10646 10644 10642 10640 10638 10635 10632 10628 10626 10625 10623 10621 10621 10620 10618 10616 10614 10612 10609 10606 10604 10602 10600 10598 10595 10593 10590 10587
10674 10679 10681 10677 10675 10675 10673 10672 10671 10670 10668 10667 10668 10669 10668 10669 10670 10670 10673 10674 10677 10688 10688 10677 10673 10676 10687 10693 10686 10683 10682 10678 10677 10674 10673 10673 10663 10656 10659 10660 10659 10659 10658 10655 10652 10650 10647 10644 10642 10641 10641 10641 10642 10642 10642 10641 10640 10639 10638 10636 10634 10632 10630 10627 10624 10620 10618 10615 10612 10610 10610 10610 10608 10606 10604 10601 10598 10595 10593 10591 10588 10586 10584 10581 10578 10575
10668 10672 10670 10667 10668 10666 10662 10664 10665 10664 10661 10660 10661 10660 10657 10659 10660 10661 10665 10665 10669 10678 10678 10671 10669 10674 10683 10683 10677 10675 10673 10670 10672 10670 10669 10670 10660 10652 10654 10655 10652 10652 10651 10649 10646 10644 10641 10637 10635 10635 10634 10634 10635 10635 10634 10633 10632 10632 10630 10628 10626 10625 10622 10619 10615 10612 10610 10608 10604 10600 10597 10597 10596 10594 10592 10589 10587 10583 10581 10579 10577 10574 10571 10568 10566 10563
10660 10663 10662 10658 10659 10657 10654 10656 10656 10654 10653 10654 10655 10649 10646 10650 10650 10649 10653 10655 10659 10668 10669 10665 10665 10671 10678 10675 10669 10668 10666 10662 10663 10662 10661 10663 10656 10649 10650 10649 10646 10645 10642 10639 10638 10637 10635 10631 10629 10629 10628 10627 10628 10627 10626 10625 10624 10623 10622 10620 10618 10616 10614 10610 10607 10603 10602 10600 10596 10592 10588 10585 10583 10581 10579 10577 10575 10572 10569 10567 10565 10562 10560 10556 10554 10552
10646 10655 10661 10651 10647 10650 10649 10647 10643 10642 10646 10650 10647 10638 10639 10645 10636 10630 10638 10646 10649 10654 10659 10660 10660 10666 10670 10666 10663 10662 10660 10658 10655 10652 10651 10653 10651 10644 10643 10641 10638 10637 10632 10628 10628 10628 10628 10627 10625 10623 10620 10620 10620 10619 10618 10617 10616 10615 10614 10613 10610 10608 10605 10602 10598 10596 10594 10592 10588 10584 10579 10575 10573 10570 10569 10567 10564 10561 10558 10556 10554 10551 10548 10545 10543 10540
10628 10643 10656 10645 10639 10645 10643 10638 10632 10629 10637 10644 10639 10632 10635 10635 10620 10613 10624 10637 10635 10635 10652 10657 10651 10657 10661 10658 10657 10653 10652 10652 10647 10644 10644 10645 10644 10637 10634 10634 10630 10626 10622 10620 10620 10619 10620 10620 10618 10617 10614 10612 10611 10609 10609 10607 10606 10607 10606 10605 10603 10601 10598 10593 10590 10588 10585 10583 10579 10575 10570 10566 10564 10562 10560 10557 10554 10551 10548 10545 10543 10540 10537 10534 10531 10529
10614 10627 10643 10639 10635 10639 10635 10629 10625 10622 10627 10633 10631 10629 10627 10618 10610 10607 10611 10622 10619 10616 10639 10651 10642 10647 10653 10652 10652 10646 10642 10642 10637 10637 10637 10636 10634 10626 10623 10622 10620 10617 10613 10612 10613 10612 10612 10611 10609 10608 10607 10605 10602 10599 10598 10597 10597 10597 10597 10596 10594 10592 10589 10585 10582 10579 10576 10573 10570 10565 10561 10556 10554 10552 10549 10547 10543 10540 10538 10535 10533 10529 10526 10523 10520 10517
10605 10607 10625 10632 10627 10630 10628 10622 10621 10620 10617 10617 10620 10621 10615 10606 10606 10604 10598 10604 10606 10601 10619 10638 10636 10638 10645 10647 10645 10637 10635 10633 10628 10629 10629 10627 10625 10615 10609 10609 10609 10608 10605 10603 10604 10603 10603 10602 10600 10599 10597 10595 10592 10589 10588 10587 10587 10587 10586 10586 10584 10582 10580 10576 10573 10571 10566 10563 10560 10557 10553 10547 10542 10540 10537 10534 10531 10528 10527 10525 10522 10518 10515 10511 10508 10505
10597 10589 10604 10620 10618 10617 10617 10615 10618 10619 10610 10604 10605 10606 10603 10600 10600 10598 10588 10588 10592 10587 10598 10619 10625 10631 10640 10641 10635 10627 10626 10626 10621 10621 10618 10618 10617 10605 10598 10600 10600 10600 10597 10593 10593 10593 10593 10593 10591 10589 10586 10584 10582 10579 10578 10578 10577 10577 10576 10575 10574 10571 10570 10567 10564 10561 10557 10553 10551 10548 10544 10537 10531 10527 10525 10522 10519 10516 10514 10513 10510 10507 10503 10499 10495 10492
10589 10575 10583 10603 10607 10601 10602 10610 10614 10611 10600 10592 10593 10595 10596 10594 10589 10585 10578 10577 10581 10575 10579 10591 10603 10625 10638 10630 10624 10620 10616 10615 10612 10610 10608 10607 10606 10598 10590 10591 10590 10589 10588 10584 10583 10582 10583 10584 10582 10579 10575 10572 10571 10570 10569 10568 10566 10566 10566 10564 10561 10560 10559 10556 10553 10550 10547 10544 10542 10538 10533 10528 10522 10517 10513 10511 10507 10504 10501 10499 10497 10495 10491 10487 10483 10479
10579 10566 10565 10579 10586 10587 10595 10604 10601 10594 10589 10584 10583 10586 10588 10587 10579 10571 10564 10569 10573 10564 10564 10565 10574 10616 10637 10618 10613 10613 10605 10604 10600 10596 10598 10594 10591 10590 10585 10584 10582 10577 10575 10575 10574 10573 10572 10572 10571 10567 10563 10560 10560 10559 10558 10557 10555 10554 10553 10550 10549 10548 10547 10544 10541 10538 10536 10534 10530 10527 10522 10517 10512 10506 10502 10500 10496 10491 10488 10485 10484 10481 10479 10475 10470 10466
10565 10554 10549 10554 10565 10577 10587 10589 10584 10582 10582 10578 10574 10576 10579 10576 10568 10558 10552 10561 10564 10550 10550 10547 10551 10603 10633 10608 10599 10603 10594 10593 10587 10580 10584 10582 10577 10577 10574 10575 10573 10567 10566 10568 10567 10563 10561 10561 10559 10555 10552 10549 10548 10548 10546 10546 10544 10541 10539 10537 10536 10537 10535 10531 10529 10526 10524 10522 10518 10514 10510 10506 10500 10495 10491 10488 10483 10479 10475 10472 10469 10467 10465 10462 10457 10453
10548 10536 10529 10535 10550 10562 10567 10570 10571 10572 10571 10565 10561 10565 10567 10560 10555 10550 10542 10548 10550 10536 10536 10536 10534 10581 10622 10601 10585 10590 10584 10581 10577 10569 10569 10569 10566 10563 10558 10558 10559 10557 10558 10559 10557 10554 10551 10549 10548 10546 10543 10540 10538 10537 10536 10534 10532 10528 10528 10527 10525 10524 10523 10519 10516 10513 10511 10508 10505 10502 10499 10494 10489 10483 10479 10475 10470 10467 10463 10459 10456 10453 10451 10448 10444 10440
10530 10523 10515 10517 10528 10538 10545 10555 10561 10562 10557 10547 10543 10549 10552 10547 10543 10539 10532 10533 10532 10521 10527 10530 10519 10552 10599 10590 10571 10576 10573 10566 10564 10558 10555 10556 10555 10549 10543 10542 10543 10545 10548 10547 10543 10542 10539 10535 10535 10535 10533 10530 10528 10526 10524 10523 10520 10517 10517 10516 10513 10512 10510 10506 10503 10500 10497 10494 10491 10489 10486 10482 10477 10471 10466 10462 10458 10455 10451 10446 10442 10439 10436 10434 10430 10426
10514 10514 10506 10501 10505 10513 10526 10540 10549 10549 10541 10528 10526 10534 10538 10537 10533 10526 10522 10520 10514 10511 10522 10522 10507 10529 10571 10572 10558 10562 10561 10552 10548 10543 10539 10543 10541 10533 10527 10525 10529 10534 10536 10533 10529 10527 10525 10521 10520 10522 10520 10517 10515 10513 10510 10509 10509 10508 10506 10503 10501 10498 10496 10493 10489 10485 10482 10480 10477 10475 10472 10468 10464 10459 10454 10450 10446 10443 10439 10434 10429 10425 10422 10420 10416 10413
10496 10496 10493 10488 10488 10493 10504 10521 10533 10531 10520 10511 10515 10522 10523 10522 10518 10512 10511 10504 10497 10504 10514 10508 10497 10511 10540 10550 10546 10550 10548 10539 10535 10530 10527 10528 10523 10514 10510 10511 10515 10520 10520 10518 10514 10512 10511 10508 10508 10508 10505 10502 10500 10497 10496 10496 10496 10496 10494 10491 10488 10484 10482 10479 10475 10471 10468 10466 10463 10460 10457 10453 10449 10445 10440 10437 10434 10430 10427 10422 10417 10413 10409 10406 10403 10399
10474 10473 10477 10476 10473 10476 10482 10495 10509 10510 10501 10498 10503 10508 10508 10505 10502 10499 10495 10489 10489 10495 10497 10494 10492 10494 10508 10524 10531 10535 10533 10524 10522 10522 10519 10514 10504 10497 10497 10499 10501 10505 10505 10501 10497 10495 10495 10495 10494 10493 10491 10488 10485 10482 10482 10482 10481 10481 10480 10477 10474 10471 10469 10465 10461 10457 10454 10452 10449 10445 10441 10438 10434 10431 10427 10423 10420 10417 10414 10410 10405 10401 10397 10393 10389 10385
10459 10455 10462 10463 10460 10465 10466 10470 10481 10486 10485 10486 10487 10489 10490 10488 10487 10484 10476 10477 10485 10483 10476 10481 10483 10477 10482 10499 10509 10515 10517 10510 10506 10506 10503 10499 10493 10488 10484 10481 10483 10490 10490 10484 10481 10481 10480 10478 10477 10477 10475 10472 10469 10468 10467 10466 10465 10464 10463 10462 10461 10458 10455 10451 10447 10443 10440 10437 10434 10430 10426 10423 10420 10416 10413 10410 10407 10404 10401 10397 10392 10388 10384 10380 10376 10372
10449 10440 10449 10452 10448 10451 10452 10452 10459 10463 10466 10471 10469 10468 10471 10470 10467 10464 10462 10472 10479 10468 10459 10462 10462 10458 10466 10478 10485 10494 10499 10492 10487 10486 10485 10485 10484 10480 10471 10461 10464 10474 10472 10464 10463 10465 10462 10460 10460 10460 10460 10457 10454 10453 10452 10450 10448 10447 10446 10447 10445 10442 10439 10436 10432 10428 10425 10422 10419 10415 10412 10409 10406 10402 10399 10397 10395 10391 10387 10383 10379 10375 10371 10367 10363 10359
10433 10426 10436 10442 10434 10434 10439 10440 10444 10446 10446 10449 10449 10448 10448 10445 10443 10446 10453 10463 10462 10447 10440 10443 10441 10442 10455 10463 10466 10471 10472 10466 10466 10469 10472 10472 10468 10464 10459 10449 10449 10455 10452 10445 10445 10446 10443 10444 10444 10444 10443 10441 10439 10437 10434 10432 10431 10430 10431 10430 10427 10426 10423 10419 10415 10412 10409 10407 10404 10401 10398 10395 10391 10389 10386 10384 10382 10378 10374 10369 10365 10361 10357 10353 10349 10345
10415 10410 10419 10423 10413 10414 10430 10434 10432 10431 10426 10423 10427 10428 10425 10424 10430 10436 10438 10436 10431 10423 10426 10431 10425 10427 10444 10450 10445 10445 10447 10445 10447 10451 10456 10456 10448 10443 10446 10443 10437 10435 10432 10427 10425 10424 10425 10427 10428 10428 10428 10427 10425 10421 10417 10415 10416 10415 10414 10412 10410 10409 10406 10402 10399 10396 10393 10391 10388 10386 10383 10380 10377 10374 10372 10370 10367 10363 10359 10354 10349 10346 10342 10338 10334 10330
10402 10397 10402 10404 10391 10393 10417 10423 10415 10413 10406 10396 10400 10410 10417 10421 10423 10421 10416 10409 10404 10404 10409 10410 10406 10413 10431 10431 10421 10425 10431 10429 10429 10433 10437 10435 10425 10423 10432 10434 10424 10416 10412 10410 10408 10405 10405 10407 10408 10410 10413 10413 10410 10407 10403 10401 10401 10399 10396 10394 10393 10392 10388 10385 10382 10380 10377 10375 10372 10370 10367 10364 10362 10359 10357 10354 10351 10347 10343 10338 10334 10330 10326 10323 10319 10315
10390 10388 10390 10391 10378 10377 10396 10403 10396 10390 10374 10365 10383 10404 10413 10415 10409 10399 10396 10399 10399 10394 10386 10382 10386 10399 10407 10402 10398 10406 10413 10413 10415 10418 10416 10407 10400 10405 10415 10414 10405 10397 10393 10392 10392 10389 10387 10387 10386 10387 10392 10394 10392 10390 10388 10386 10384 10381 10379 10378 10378 10375 10372 10369 10366 10364 10362 10359 10356 10353 10351 10348 10346 10344 10341 10338 10334 10330 10326 10323 10319 10315 10311 10308 10304 10299
10375 10376 10376 10375 10365 10362 10375 10384 10376 10355 10338 10350 10384 10401 10397 10393 10388 10381 10381 10390 10395 10390 10378 10369 10371 10380 10381 10376 10379 10386 10394 10401 10404 10400 10390 10382 10382 10390 10394 10389 10382 10376 10374 10374 10376 10375 10373 10370 10368 10369 10373 10375 10374 10372 10372 10370 10367 10365 10363 10364 10363 10360 10357 10353 10350 10347 10345 10342 10339 10337 10335 10333 10330 10328 10325 10321 10318 10315 10311 10308 10304 10300 10296 10292 10288 10283
10361 10360 10358 10356 10349 10344 10354 10360 10343 10323 10329 10355 10374 10377 10375 10376 10376 10371 10368 10374 10379 10377 10373 10366 10360 10360 10362 10363 10367 10373 10379 10387 10387 10379 10370 10366 10370 10374 10373 10369 10362 10355 10354 10359 10360 10360 10359 10356 10353 10354 10356 10356 10355 10355 10354 10353 10351 10349 10349 10349 10348 10345 10341 10337 10334 10331 10328 10325 10324 10322 10320 10318 10314 10312 10309 10305 10302 10299 10295 10292 10288 10284 10280 10276 10272 10268
10345 10342 10339 10335 10330 10326 10329 10328 10314 10310 10329 10344 10344 10351 10366 10372 10371 10362 10351 10353 10363 10363 10359 10355 10349 10348 10350 10354 10360 10364 10365 10363 10359 10357 10356 10357 10361 10362 10358 10353 10345 10338 10340 10345 10345 10344 10343 10341 10340 10340 10340 10340 10338 10337 10337 10335 10333 10333 10333 10333 10332 10329 10325 10321 10318 10315 10312 10310 10309 10307 10305 10302 10299 10296 10293 10289 10286 10283 10279 10275 10272 10269 10265 10261 10257 10253
10328 10323 10318 10312 10307 10307 10305 10299 10296 10299 10310 10319 10325 10342 10358 10360 10357 10348 10331 10329 10343 10346 10341 10339 10337 10340 10346 10350 10352 10350 10342 10333 10328 10333 10344 10350 10351 10350 10346 10340 10331 10324 10328 10333 10332 10329 10326 10323 10324 10325 10324 10324 10323 10322 10320 10317 10316 10317 10317 10317 10316 10313 10309 10305 10302 10299 10296 10295 10294 10292 10290 10287 10285 10282 10278 10274 10271 10268 10264 10261 10258 10256 10252 10248 10244 10241
10308 10302 10299 10290 10284 10288 10286 10279 10279 10279 10284 10300 10318 10331 10339 10339 10338 10332 10312 10302 10314 10325 10327 10328 10330 10333 10337 10337 10332 10325 10316 10306 10303 10316 10334 10340 10337 10333 10329 10325 10320 10314 10314 10316 10316 10314 10310 10306 10307 10309 10309 10310 10310 10308 10305 10302 10302 10302 10302 10302 10301 10298 10295 10291 10286 10283 10281 10280 10278 10276 10275 10273 10271 10267 10263 10259 10257 10253 10250 10248 10245 10242 10239 10235 10232 10228
10288 10285 10284 10272 10265 10271 10270 10262 10261 10261 10266 10286 10306 10314 10317 10317 10317 10309 10287 10278 10297 10315 10317 10317 10319 10317 10312 10308 10306 10303 10297 10289 10290 10306 10321 10323 10318 10315 10312 10310 10309 10305 10300 10298 10298 10298 10295 10291 10289 10291 10293 10294 10295 10294 10291 10288 10287 10286 10286 10287 10285 10284 10281 10275 10270 10268 10266 10264 10262 10260 10260 10259 10256 10253 10249 10245 10242 10239 10236 10234 10231 10228 10226 10223 10219 10216
10274 10271 10268 10258 10253 10257 10256 10247 10246 10249 10257 10273 10287 10294 10297 10294 10289 10277 10262 10268 10291 10302 10298 10297 10295 10290 10285 10285 10287 10286 10282 10278 10282 10292 10301 10301 10298 10297 10297 10297 10295 10290 10287 10286 10284 10281 10278 10274 10271 10271 10273 10275 10277 10278 10275 10272 10270 10269 10270 10270 10268 10268 10264 10257 10254 10254 10250 10247 10245 10244 10244 10242 10239 10237 10234 10231 10228 10225 10222 10220 10217 10214 10212 10209 10205 10202
10261 10256 10251 10246 10244 10246 10243 10237 10235 10239 10250 10261 10266 10270 10275 10271 10259 10248 10251 10266 10273 10268 10268 10273 10272 10269 10270 10271 10271 10270 10269 10270 10271 10274 10278 10280 10279 10280 10281 10281 10280 10277 10274 10274 10272 10267 10262 10257 10252 10251 10253 10256 10257 10259 10258 10256 10255 10254 10253 10252 10251 10250 10245 10240 10239 10238 10234 10230 10228 10227 10226 10224 10222 10220 10218 10216 10213 10210 10207 10205 10202 10199 10196 10193 10190 10187
10243 10240 10234 10232 10233 10234 10230 10224 10221 10226 10238 10246 10248 10251 10252 10245 10234 10231 10242 10253 10249 10243 10246 10250 10251 10254 10256 10256 10256 10256 10257 10259 10258 10256 10257 10258 10258 10260 10263 10266 10267 10265 10262 10260 10258 10254 10249 10243 10237 10234 10236 10238 10239 10240 10241 10240 10240 10238 10235 10234 10233 10230 10227 10225 10224 10224 10220 10216 10212 10211 10210 10208 10206 10203 10201 10199 10197 10194 10191 10189 10186 10183 10180 10177 10174 10172
10223 10221 10218 10217 10216 10215 10213 10211 10209 10214 10222 10227 10231 10236 10235 10225 10219 10220 10223 10226 10229 10229 10228 10226 10228 10231 10232 10235 10239 10238 10238 10242 10242 10240 10241 10241 10241 10244 10247 10250 10252 10251 10249 10247 10243 10240 10235 10229 10224 10221 10221 10223 10224 10224 10224 10224 10224 10222 10220 10219 10216 10212 10211 10211 10209 10208 10206 10202 10199 10198 10197 10194 10191 10187 10185 10183 10181 10178 10176 10174 10171 10167 10165 10162 10160 10158
10204 10201 10198 10201 10199 10193 10193 10201 10204 10204 10207 10208 10208 10216 10220 10213 10207 10205 10204 10205 10209 10208 10205 10206 10208 10209 10209 10214 10218 10217 10217 10221 10223 10225 10228 10229 10230 10231 10232 10234 10235 10235 10235 10233 10229 10226 10221 10215 10211 10209 10208 10211 10211 10209 10208 10207 10207 10206 10205 10204 10201 10197 10196 10195 10193 10191 10190 10188 10187 10185 10183 10180 10176 10173 10171 10168 10165 10162 10160 10159 10156 10153 10150 10148 10146 10143
10186 10186 10179 10180 10182 10176 10175 10186 10193 10192 10192 10191 10188 10192 10198 10194 10189 10187 10186 10188 10190 10188 10187 10188 10189 10191 10193 10194 10196 10197 10198 10199 10202 10207 10211 10214 10217 10219 10218 10219 10220 10219 10218 10217 10214 10211 10207 10203 10199 10197 10196 10198 10198 10196 10194 10192 10190 10190 10191 10189 10187 10185 10182 10179 10176 10174 10173 10173 10174 10172 10169 10166 10163 10159 10157 10153 10150 10147 10145 10144 10142 10138 10135 10133 10131 10129
10163 10170 10165 10160 10162 10161 10161 10170 10176 10172 10172 10174 10172 10174 10175 10169 10165 10167 10167 10169 10171 10171 10170 10169 10170 10175 10177 10175 10176 10178 10179 10181 10184 10188 10190 10194 10199 10202 10203 10203 10203 10201 10201 10201 10200 10197 10195 10192 10189 10186 10186 10186 10186 10183 10181 10178 10175 10175 10176 10175 10173 10171 10167 10163 10160 10158 10157 10158 10158 10156 10153 10151 10149 10145 10142 10139 10136 10133 10131 10129 10127 10123 10120 10119 10117 10115
10148 10153 10149 10142 10141 10142 10148 10160 10161 10148 10147 10156 10158 10157 10153 10144 10140 10142 10144 10147 10152 10153 10152 10152 10151 10154 10156 10157 10159 10159 10160 10163 10166 10169 10172 10175 10179 10184 10187 10187 10187 10186 10186 10186 10186 10185 10184 10182 10180 10178 10176 10174 10172 10170 10167 10164 10162 10161 10161 10161 10160 10156 10151 10148 10144 10142 10142 10143 10142 10140 10137 10136 10134 10131 10128 10125 10122 10120 10118 10115 10112 10109 10107 10105 10103 10101
10141 10139 10128 10121 10123 10126 10134 10147 10145 10128 10127 10139 10141 10135 10127 10120 10120 10123 10123 10126 10132 10135 10136 10135 10132 10132 10136 10139 10140 10141 10143 10146 10148 10150 10155 10159 10162 10167 10169 10169 10170 10170 10169 10170 10171 10172 10173 10172 10171 10168 10165 10163 10159 10155 10152 10149 10147 10147 10147 10147 10144 10140 10136 10133 10130 10128 10128 10129 10128 10125 10122 10120 10119 10117 10114 10111 10109 10107 10105 10102 10099 10097 10095 10093 10091 10088
10122 10123 10116 10105 10103 10111 10121 10127 10120 10110 10116 10128 10124 10108 10097 10098 10106 10111 10110 10109 10110 10111 10114 10116 10114 10114 10116 10118 10121 10123 10126 10130 10132 10133 10136 10142 10147 10149 10150 10151 10152 10152 10152 10152 10152 10154 10157 10158 10157 10156 10153 10151 10146 10140 10136 10134 10133 10133 10134 10132 10128 10124 10121 10118 10115 10114 10114 10115 10113 10110 10107 10105 10104 10103 10101 10099 10096 10094 10092 10089 10086 10084 10083 10081 10079 10077
10096 10102 10107 10095 10085 10096 10109 10105 10091 10087 10099 10113 10110 10091 10077 10081 10091 10094 10093 10093 10090 10088 10090 10094 10096 10097 10097 10098 10101 10104 10108 10114 10117 10115 10117 10124 10129 10130 10131 10133 10134 10135 10135 10134 10132 10134 10136 10137 10137 10137 10136 10134 10129 10123 10120 10120 10119 10119 10118 10115 10112 10109 10105 10101 10100 10099 10099 10099 10098 10095 10093 10091 10091 10089 10088 10086 10084 10081 10078 10076 10074 10072 10070 10068 10066 10064
10078 10081 10088 10082 10074 10083 10091 10083 10069 10066 10075 10090 10095 10081 10067 10068 10074 10074 10074 10074 10071 10070 10072 10075 10079 10084 10084 10082 10083 10085 10088 10095 10099 10099 10101 10106 10111 10112 10112 10114 10116 10118 10120 10118 10115 10116 10117 10115 10113 10114 10115 10114 10110 10106 10105 10106 10105 10104 10102 10099 10096 10092 10088 10085 10084 10084 10084 10084 10083 10082 10080 10078 10077 10077 10075 10072 10070 10068 10066 10064 10062 10060 10058 10056 10053 10050